{"data":{"norad_id":60464,"intl_designator":"2024-148G","name":"YAOGAN-43 01G","alt_names":[],"object_type":"PAYLOAD","status":"ACTIVE","operator":null,"country":"PRC","launch_date":"2024-08-16","launch_site_code":"XICLF","launch_vehicle":null,"mission":null,"orbit_class":"UNKNOWN","rcs_meters":null,"size_class":null,"mass_kg":null,"dimensions":null,"purposes":[],"wikipedia_slug":null,"has_3d_model":false,"image_url":null,"decayed_at":null,"tle_current":{"epoch":"2026-09-22T23:46:45.994368Z","epoch_age_seconds":70969,"freshness":"FRESH","line1":"1 60464U 24148G   26265.99081012  .00005814  00000+0  19061-3 0  9997","line2":"2 60464  35.0026 246.7957 0006396 321.4378  38.5882 15.30940460117274","mean_motion":15.3094046,"eccentricity":0.0006396,"inclination_deg":35.0026,"raan_deg":246.7957,"arg_perigee_deg":321.4378,"mean_anomaly_deg":38.5882,"bstar":0.00019061,"rev_number":11727,"period_min":94.059830386872,"perigee_km":468.62309000299,"apogee_km":477.38707095234,"semimajor_km":6851.1420804777,"source":"CELESTRAK","updated_at":"2026-09-23T09:00:20.619705Z"}}}